Temp
-22 -22 -23 -23 -23 -23 -23 -22 -21 -21 -20 -21 -21 -21 -21 -20 -18 -17 -16 -15 -15 -13 -13 -13 -13 -13 -13 -13 -13 -13 -13 -13 -13 -13 -14 -14 -13 -14
-24 -24 -24 -24 -24 -23 -23 -23 -22 -22 -21 -20 -21 -21 -21 -21 -20 -18 -17 -16 -16 -15 -14 -13 -13 -12 -12 -13 -13 -13 -13 -13 -13 -13 -13 -14 -13 -13
-26 -25 -25 -25 -24 -24 -24 -23 -23 -23 -22 -20 -20 -21 -21 -21 -21 -20 -18 -17 -16 -15 -15 -14 -13 -13 -13 -13 -13 -13 -13 -13 -13 -13 -13 -14 -14 -13
-27 -27 -26 -26 -25 -25 -24 -24 -23 -23 -22 -21 -21 -21 -21 -21 -21 -21 -19 -17 -17 -16 -15 -15 -14 -14 -13 -13 -13 -13 -13 -13 -13 -13 -13 -13 -13 -13
-27 -27 -27 -26 -26 -25 -25 -24 -24 -23 -23 -22 -21 -21 -21 -21 -21 -21 -20 -19 -17 -17 -16 -15 -16 -16 -14 -14 -14 -14 -13 -13 -13 -13 -13 -13 -13 -14
-27 -27 -27 -26 -26 -25 -25 -25 -24 -24 -23 -23 -22 -21 -20 -20 -21 -21 -21 -20 -18 -17 -17 -16 -16 -15 -14 -14 -14 -14 -14 -14 -13 -13 -13 -13 -13 -13
-26 -26 -26 -26 -26 -26 -25 -25 -25 -24 -24 -23 -23 -23 -22 -21 -21 -21 -20 -21 -19 -18 -17 -17 -16 -15 -15 -14 -14 -15 -14 -14 -13 -12 -12 -13 -13 -13
-26 -26 -26 -26 -26 -26 -26 -25 -25 -24 -24 -24 -23 -23 -23 -23 -21 -21 -21 -20 -20 -19 -18 -17 -17 -16 -16 -15 -16 -15 -15 -14 -13 -13 -12 -13 -13 -13
-26 -26 -26 -26 -26 -26 -26 -26 -26 -25 -24 -24 -24 -23 -23 -23 -22 -21 -21 -21 -21 -20 -18 -17 -17 -16 -16 -16 -16 -15 -15 -14 -13 -13 -13 -13 -13 -13
-26 -26 -26 -26 -26 -26 -26 -26 -26 -25 -25 -24 -24 -23 -23 -22 -22 -21 -21 -21 -21 -20 -19 -17 -17 -17 -16 -16 -16 -15 -15 -15 -14 -13 -13 -13 -13 -13
-27 -27 -27 -27 -26 -26 -26 -26 -26 -26 -25 -25 -24 -24 -23 -23 -22 -21 -21 -21 -21 -21 -20 -18 -18 -17 -17 -16 -16 -16 -15 -15 -14 -13 -14 -13 -13 -13
-28 -28 -28 -27 -27 -27 -26 -26 -25 -26 -25 -25 -25 -24 -24 -23 -22 -21 -22 -21 -21 -22 -21 -18 -18 -18 -17 -16 -16 -16 -15 -14 -14 -14 -14 -13 -13 -13
-28 -28 -28 -28 -27 -27 -26 -25 -25 -25 -26 -25 -25 -25 -25 -24 -23 -22 -22 -22 -21 -22 -21 -18 -18 -17 -18 -17 -17 -16 -15 -15 -15 -15 -14 -14 -14 -14
-29 -28 -28 -28 -27 -27 -27 -26 -26 -25 -26 -25 -25 -25 -25 -24 -24 -23 -23 -23 -22 -22 -20 -18 -18 -18 -18 -17 -17 -16 -16 -16 -15 -15 -15 -15 -14 -14
-29 -29 -28 -28 -28 -28 -28 -29 -28 -26 -26 -25 -25 -25 -25 -25 -24 -23 -23 -23 -22 -22 -20 -18 -18 -18 -17 -16 -16 -16 -16 -15 -15 -16 -15 -15 -15 -14
-29 -29 -29 -29 -30 -31 -31 -30 -29 -27 -26 -26 -25 -25 -25 -24 -24 -24 -23 -23 -22 -20 -18 -18 -17 -18 -16 -16 -15 -17 -16 -16 -15 -15 -15 -16 -15 -15
-30 -30 -30 -31 -32 -32 -32 -31 -30 -28 -27 -26 -25 -25 -25 -25 -24 -24 -23 -22 -21 -20 -19 -18 -18 -17 -16 -16 -16 -17 -16 -16 -16 -16 -16 -15 -15 -15
-30 -31 -32 -33 -33 -33 -33 -32 -30 -29 -27 -26 -25 -25 -25 -25 -24 -23 -21 -21 -21 -20 -19 -18 -18 -17 -17 -16 -17 -17 -16 -16 -16 -16 -16 -16 -15 -15
-31 -32 -33 -33 -34 -33 -33 -32 -31 -29 -28 -27 -26 -25 -25 -25 -24 -23 -21 -20 -20 -19 -19 -18 -18 -17 -17 -17 -18 -18 -18 -16 -17 -16 -16 -16 -16 -16
-32 -32 -33 -34 -34 -34 -33 -33 -31 -29 -28 -27 -26 -25 -25 -25 -24 -23 -22 -21 -20 -19 -19 -18 -18 -18 -17 -17 -18 -18 -17 -17 -17 -17 -17 -17 -16 -16
-32 -33 -34 -34 -34 -34 -33 -33 -32 -30 -28 -27 -26 -26 -25 -25 -24 -24 -23 -21 -20 -20 -19 -19 -19 -18 -18 -18 -17 -18 -18 -17 -17 -17 -17 -16 -16 -16
-33 -33 -34 -34 -34 -34 -34 -33 -32 -30 -29 -28 -27 -26 -26 -26 -24 -24 -24 -23 -21 -20 -20 -19 -19 -19 -19 -19 -18 -18 -18 -18 -18 -18 -18 -17 -16 -17
-33 -34 -34 -34 -35 -35 -34 -33 -32 -31 -29 -28 -27 -26 -26 -26 -26 -24 -24 -23 -22 -21 -20 -20 -19 -20 -19 -19 -19 -18 -19 -19 -19 -18 -18 -18 -17 -17
Height
5542 5538 5534 5531 5528 5524 5521 5517 5513 5517 5521 5517 5514 5515 5516 5516 5526 5538 5549 5560 5571 5584 5595 5605 5606 5623 5632 5639 5648 5656 5664 5668 5674 5680 5686 5690 5695 5700
5525 5521 5517 5515 5513 5510 5507 5504 5500 5497 5502 5500 5501 5500 5500 5499 5501 5511 5526 5537 5549 5564 5572 5587 5594 5597 5608 5624 5632 5642 5650 5655 5662 5667 5674 5680 5685 5690
5507 5504 5501 5499 5498 5495 5493 5490 5487 5483 5484 5487 5485 5484 5484 5484 5482 5487 5501 5515 5527 5541 5552 5565 5576 5587 5593 5606 5616 5625 5634 5641 5649 5656 5663 5670 5675 5679
5495 5491 5487 5484 5482 5480 5478 5477 5473 5470 5469 5469 5469 5467 5467 5467 5469 5468 5477 5492 5504 5520 5533 5546 5555 5564 5562 5580 5599 5607 5617 5626 5634 5642 5649 5657 5664 5669
5485 5480 5476 5471 5468 5466 5464 5462 5459 5456 5455 5453 5453 5450 5450 5450 5453 5454 5457 5467 5482 5498 5512 5524 5534 5549 5562 5570 5581 5592 5602 5611 5620 5628 5635 5643 5651 5658
5475 5469 5464 5459 5455 5452 5450 5447 5445 5442 5440 5439 5438 5434 5433 5434 5435 5441 5443 5447 5462 5478 5494 5507 5515 5530 5544 5555 5567 5577 5587 5596 5605 5615 5620 5628 5637 5645
5465 5459 5452 5447 5442 5437 5434 5432 5430 5428 5425 5424 5423 5421 5417 5416 5416 5421 5429 5432 5444 5459 5475 5486 5503 5517 5529 5539 5551 5563 5575 5584 5591 5600 5607 5614 5622 5630
5454 5448 5441 5434 5428 5422 5418 5415 5413 5411 5410 5408 5407 5406 5403 5399 5399 5404 5411 5419 5430 5440 5449 5464 5479 5496 5513 5525 5539 5552 5563 5570 5578 5584 5592 5600 5608 5616
5442 5435 5428 5420 5413 5407 5402 5399 5396 5393 5392 5392 5391 5390 5388 5386 5385 5388 5394 5402 5412 5422 5431 5450 5463 5480 5495 5510 5524 5538 5549 5555 5562 5569 5579 5585 5594 5601
5426 5418 5411 5404 5396 5389 5386 5382 5380 5378 5377 5376 5373 5373 5371 5372 5371 5374 5380 5386 5394 5405 5411 5434 5451 5466 5481 5498 5510 5522 5532 5541 5550 5557 5564 5571 5577 5587
5409 5400 5391 5384 5377 5370 5366 5364 5362 5362 5362 5362 5362 5359 5357 5356 5355 5357 5360 5369 5378 5388 5396 5418 5435 5453 5466 5480 5496 5506 5517 5527 5536 5545 5550 5557 5563 5571
5393 5383 5373 5365 5357 5351 5345 5343 5344 5345 5347 5349 5348 5345 5343 5341 5339 5338 5341 5350 5360 5371 5380 5401 5422 5439 5451 5465 5479 5491 5502 5513 5523 5531 5539 5547 5551 5557
5376 5367 5357 5347 5339 5331 5325 5322 5324 5327 5331 5334 5337 5334 5332 5329 5328 5326 5330 5337 5344 5356 5368 5387 5410 5426 5440 5456 5467 5478 5490 5501 5511 5521 5529 5534 5540 5545
5358 5348 5338 5328 5319 5311 5305 5301 5302 5307 5314 5320 5323 5323 5320 5318 5316 5316 5320 5325 5333 5344 5359 5379 5399 5414 5430 5443 5453 5467 5478 5489 5500 5508 5516 5522 5529 5536
5341 5330 5319 5308 5299 5291 5285 5283 5284 5290 5298 5306 5309 5311 5309 5308 5305 5306 5308 5316 5325 5336 5354 5374 5391 5403 5416 5431 5444 5455 5465 5477 5487 5496 5504 5512 5518 5525
5328 5315 5303 5291 5281 5275 5271 5268 5270 5276 5284 5292 5298 5300 5299 5299 5299 5298 5300 5308 5317 5331 5350 5367 5379 5392 5406 5418 5432 5441 5453 5463 5473 5483 5491 5498 5505 5513
5314 5300 5288 5277 5269 5263 5258 5257 5259 5265 5273 5279 5286 5290 5290 5289 5289 5289 5293 5302 5312 5328 5346 5359 5372 5381 5389 5403 5411 5427 5441 5452 5461 5469 5478 5486 5491 5499
5300 5286 5274 5265 5258 5254 5251 5248 5250 5257 5264 5270 5275 5280 5284 5285 5288 5290 5296 5305 5318 5331 5339 5351 5361 5374 5383 5393 5403 5416 5429 5433 5448 5456 5465 5472 5479 5486
5287 5274 5263 5255 5249 5245 5243 5241 5242 5249 5257 5263 5267 5270 5275 5280 5283 5288 5296 5303 5312 5321 5332 5344 5356 5364 5373 5380 5387 5401 5414 5424 5436 5445 5450 5456 5466 5474
5276 5265 5255 5248 5242 5238 5236 5234 5236 5241 5249 5256 5261 5264 5266 5273 5278 5283 5290 5298 5307 5316 5326 5335 5343 5352 5362 5371 5379 5390 5404 5413 5423 5431 5439 5446 5453 5462
5268 5257 5248 5241 5236 5232 5230 5228 5230 5234 5241 5249 5255 5259 5262 5266 5272 5277 5284 5291 5299 5308 5317 5325 5333 5342 5352 5361 5371 5383 5392 5403 5412 5419 5427 5435 5442 5450
5261 5251 5242 5236 5230 5226 5223 5223 5223 5227 5233 5241 5248 5254 5257 5259 5265 5271 5277 5283 5291 5299 5307 5316 5323 5332 5343 5352 5362 5371 5379 5389 5397 5404 5414 5422 5430 5436
5254 5244 5237 5230 5224 5220 5217 5216 5217 5220 5225 5232 5239 5247 5252 5255 5258 5263 5268 5276 5282 5289 5297 5305 5314 5323 5332 5341 5351 5360 5369 5377 5386 5394 5403 5409 5417 5424
Wind_Speed
59 58 58 58 55 54 54 55 55 52 44 42 43 51 56 67 85 84 83 86 86 85 75 70 66 67 59 61 61 58 55 49 48 45 46 44 40 38
61 59 56 54 53 53 50 49 51 49 39 41 41 43 54 57 68 88 85 83 86 80 82 76 75 57 62 65 62 60 58 55 55 49 52 49 43 41
55 54 54 53 51 50 50 48 49 48 40 37 40 43 48 54 57 74 88 85 86 87 78 70 73 81 71 67 65 67 66 60 58 54 51 50 46 43
45 45 46 48 49 49 48 47 48 49 42 38 41 43 47 52 51 58 79 88 85 87 91 77 66 54 59 65 63 62 64 62 58 56 55 52 48 46
43 44 45 45 47 48 47 46 46 48 46 40 40 45 44 49 52 49 61 85 89 84 87 90 90 81 68 62 61 62 62 62 60 54 51 58 56 53
43 45 45 46 46 46 47 47 46 46 46 44 42 42 43 49 52 54 49 68 88 84 80 88 86 79 81 68 68 58 56 53 53 55 49 57 61 63
44 45 47 47 49 49 50 49 47 47 46 44 43 42 43 45 48 52 56 53 72 84 80 83 87 80 68 64 65 50 48 54 45 49 47 52 62 63
48 50 51 51 51 51 53 51 49 48 47 45 45 41 42 44 48 49 57 60 55 76 84 82 84 84 82 76 64 55 51 48 50 49 48 53 53 58
54 56 57 58 56 52 52 53 51 50 49 46 46 42 39 40 42 46 50 55 55 64 83 79 80 84 83 68 61 63 51 46 46 49 58 60 58 56
61 64 64 62 59 56 53 50 53 51 49 47 48 45 41 38 39 47 49 46 55 61 77 80 79 76 78 72 64 62 57 55 53 50 50 60 63 65
68 67 65 62 60 58 53 51 50 52 49 48 44 45 44 38 43 51 54 57 55 59 74 78 79 74 73 70 63 60 60 57 55 47 39 47 53 61
66 65 64 64 61 59 55 51 48 49 50 47 43 44 42 37 38 47 41 53 57 57 72 80 80 73 62 73 67 66 61 56 54 49 39 47 47 57
65 64 64 64 62 59 56 52 47 47 48 46 41 41 43 39 35 38 40 47 56 59 70 80 77 74 70 65 64 64 64 59 55 49 47 39 38 49
64 65 65 64 62 58 54 50 47 47 45 43 40 37 38 34 33 37 43 41 57 60 71 78 75 67 63 66 64 63 62 56 54 50 47 43 44 42
65 66 66 65 61 55 48 43 41 44 44 40 38 35 31 29 28 31 36 40 57 58 72 73 68 65 61 65 63 65 62 59 55 54 52 51 50 51
64 65 65 61 55 47 40 35 36 40 42 38 34 31 26 23 21 18 28 35 52 70 73 68 72 64 65 69 65 66 60 56 57 55 55 48 48 49
64 64 60 54 46 40 36 30 30 37 37 36 31 27 21 20 17 13 14 24 60 71 56 64 59 49 60 62 63 61 55 55 54 53 53 46 52 50
63 62 55 46 40 34 30 29 28 34 34 32 29 26 19 19 18 22 32 37 57 53 55 46 40 59 52 55 59 65 58 48 59 54 53 50 52 50
62 58 50 41 35 31 28 25 27 32 34 29 27 26 20 19 22 25 36 44 45 44 52 55 57 50 47 50 66 65 70 66 56 52 52 44 49 55
59 53 45 38 33 29 26 24 25 32 34 30 27 25 23 17 23 25 35 40 51 51 49 46 53 53 52 45 57 63 62 58 62 55 56 55 55 56
55 49 43 37 33 28 25 23 24 32 35 33 29 26 26 20 21 26 31 42 43 47 49 50 49 46 55 57 56 59 64 53 53 53 53 52 54 57
52 47 42 36 33 28 24 23 24 32 36 35 32 28 26 23 20 25 31 34 45 47 47 44 41 45 47 48 59 60 60 53 49 42 42 50 58 54
50 45 41 35 31 28 24 23 24 31 38 37 35 32 28 26 23 21 24 30 38 42 43 42 44 41 42 43 49 54 51 50 49 51 47 45 54 56
Wind_Direction
287 285 284 283 283 284 282 280 282 283 278 264 263 252 253 250 239 235 233 231 231 232 233 230 234 235 233 234 237 243 238 237 241 240 240 239 238 241
285 283 282 280 280 280 283 282 280 287 281 263 260 256 251 254 248 234 231 231 229 229 235 229 232 231 232 233 235 236 237 242 242 243 242 239 236 240
294 289 283 281 279 281 283 283 280 283 285 266 261 258 254 248 254 243 231 229 228 224 224 226 232 228 233 233 234 232 236 241 240 244 242 237 237 236
298 292 288 284 281 281 283 283 282 281 283 272 267 266 256 251 249 248 238 228 228 225 226 222 216 216 223 229 231 230 231 233 238 238 239 238 239 236
303 298 292 287 284 280 281 283 282 282 280 281 273 268 259 250 244 248 241 233 228 226 225 223 231 233 234 231 222 227 228 231 235 240 239 239 241 235
309 303 296 291 286 282 281 281 283 283 283 280 281 277 265 253 247 241 242 237 230 226 224 224 230 228 230 230 224 225 225 231 232 237 240 237 237 240
314 310 307 299 290 283 280 279 281 281 282 284 281 286 276 263 252 244 237 241 234 228 224 223 224 224 227 225 221 227 230 231 232 233 238 235 233 235
315 314 312 310 299 289 281 279 279 279 281 284 286 285 279 266 255 244 237 239 239 229 223 221 220 223 222 227 233 234 233 233 232 232 235 232 234 235
311 310 309 307 305 296 286 277 276 278 281 283 288 286 282 260 256 244 237 246 238 225 222 220 219 221 225 227 225 229 223 224 227 229 225 233 233 233
309 308 307 304 300 297 287 281 271 273 276 282 289 287 288 260 258 245 243 243 229 221 222 216 218 220 222 223 222 222 222 225 232 230 233 232 235 233
309 308 306 304 300 297 290 280 273 267 271 276 283 285 285 270 267 264 250 241 229 223 217 213 214 216 217 218 220 219 221 219 225 223 233 235 234 231
311 309 308 306 302 299 293 282 270 263 263 271 280 285 287 270 273 265 247 225 225 220 213 209 210 211 214 214 214 217 220 217 222 228 231 233 229 227
312 311 309 307 304 300 294 284 271 258 256 263 270 283 285 270 262 252 244 227 222 217 211 205 205 211 215 216 214 217 220 226 230 233 239 241 236 226
314 313 311 310 307 303 296 284 269 251 248 255 264 276 280 274 270 240 222 225 217 216 204 200 203 206 208 215 214 216 219 222 224 227 223 225 221 222
316 316 315 314 310 305 296 280 263 244 243 248 259 273 276 270 269 231 217 220 214 216 196 198 201 203 207 217 219 217 219 220 223 226 222 217 218 220
319 319 318 314 309 303 294 278 259 237 237 242 253 269 272 264 259 232 199 216 217 193 190 199 204 208 211 214 216 218 219 221 223 225 228 232 232 234
322 322 320 314 308 302 295 280 253 230 231 238 248 262 268 261 267 235 212 207 202 187 190 201 208 206 203 213 214 216 212 219 223 224 228 227 236 241
326 325 322 315 307 301 293 281 246 226 224 233 243 257 255 243 239 207 203 193 190 202 214 205 212 208 211 215 219 208 209 209 219 223 229 230 238 239
328 328 324 317 309 303 293 278 246 221 219 225 236 251 251 224 224 207 197 197 205 208 209 212 215 201 201 201 214 218 214 214 214 224 233 230 230 241
330 329 325 319 313 304 293 278 246 222 216 218 225 240 247 221 215 213 200 191 195 198 202 198 200 198 193 203 214 211 210 217 217 226 229 231 236 235
332 329 326 321 316 307 293 278 250 224 218 215 215 226 237 227 212 209 204 196 194 197 195 203 203 200 207 208 206 218 215 219 220 221 234 232 237 230
332 330 327 322 317 310 294 276 254 229 220 218 212 215 226 235 215 205 211 204 196 197 197 201 207 212 212 215 215 221 230 232 223 230 232 233 228 230
331 329 327 322 318 311 301 275 257 234 223 219 216 211 214 224 232 212 207 214 202 196 197 208 214 217 223 220 222 226 233 236 238 236 244 245 238 239